{"data":{"norad_id":60359,"intl_designator":"2024-138E","name":"STARLINK-32290","alt_names":[],"object_type":"PAYLOAD","status":"ACTIVE","operator":null,"country":"US","launch_date":"2024-08-04","launch_site_code":"AFWTR","launch_vehicle":null,"mission":null,"orbit_class":"UNKNOWN","rcs_meters":null,"size_class":null,"mass_kg":null,"dimensions":null,"purposes":["comms"],"wikipedia_slug":null,"has_3d_model":false,"image_url":null,"decayed_at":null,"tle_current":{"epoch":"2026-09-21T19:30:34.504704Z","epoch_age_seconds":72153,"freshness":"FRESH","line1":"1 60359U 24138E   26264.81289936  .00000059  00000+0  12877-4 0  9999","line2":"2 60359  53.1589 117.3094 0001405  74.8746 285.2412 15.34389945101701","mean_motion":15.34389945,"eccentricity":0.0001405,"inclination_deg":53.1589,"raan_deg":117.3094,"arg_perigee_deg":74.8746,"mean_anomaly_deg":285.2412,"bstar":1.2877e-5,"rev_number":10170,"period_min":93.848373074421,"perigee_km":461.77198369661,"apogee_km":463.694268202,"semimajor_km":6840.8701259493,"source":"CELESTRAK","updated_at":"2026-09-22T09:00:49.224167Z"}}}